Terminal Aerodrome Forecast
Issued by NWS Caribou, ME

Home | Current Version | Previous Version | Text Only | Print | Product List | Glossary On
Versions: 1 2 3 4 5 6 7 8 9 10 11 12 13 14 15 16 17 18 19 20
000
FTUS41 KCAR 042329
TAFBGR
TAF
KBGR 042329Z 0500/0524 13005KT P6SM OVC025
     FM050200 09005KT 6SM -RA OVC015
     FM050400 07005KT 5SM -RA BR OVC009
     FM050800 04009KT 3SM -RA BR OVC006
     FM051200 04010KT 6SM BR VCSH OVC009
     FM051600 04010KT P6SM VCSH OVC015=

USA.gov is the U.S. government's official web portal to all federal, state and local government web resources and services.